This is the latest recevied weather packets stored in our database for station/object KF4CQ. If no packets are shown the sender has not sent any weather packets the latest 10 day(s).
| Time | Temp. | Humidity | Pressure | Rain* | Wind** | Luminosity | Snow |
|---|---|---|---|---|---|---|---|
| 1778177322 | 34.44° C | 43% | 1015.8 hPa | 0 mm | - | 798 W/m² | - |
| 1778177019 | 35° C | 42% | 1015.9 hPa | 0 mm | - | 798 W/m² | - |
| 1778176714 | 35° C | 45% | 1016.1 hPa | 0 mm | - | 796 W/m² | - |
| 1778176412 | 33.89° C | 46% | 1016.3 hPa | 0 mm | - | 812 W/m² | - |
| 1778176109 | 34.44° C | 46% | 1016.2 hPa | 0 mm | - | 806 W/m² | - |
| 1778175806 | 33.89° C | 46% | 1016.4 hPa | 0 mm | - | 804 W/m² | - |
| 1778175504 | 33.33° C | 45% | 1016.2 hPa | 0 mm | - | 807 W/m² | - |
| 1778175201 | 33.33° C | 46% | 1016.2 hPa | 0 mm | - | 805 W/m² | - |
| 1778174897 | 33.89° C | 46% | 1016.4 hPa | 0 mm | - | 805 W/m² | - |
| 1778174594 | 33.33° C | 48% | 1016.1 hPa | 0 mm | - | 804 W/m² | - |
| 1778174289 | 33.89° C | 47% | 1016.2 hPa | 0 mm | - | 801 W/m² | - |
| 1778173987 | 33.89° C | 48% | 1016.2 hPa | 0 mm | - | 801 W/m² | - |
| 1778173684 | 33.89° C | 48% | 1016.3 hPa | 0 mm | - | 796 W/m² | - |
| 1778173380 | 33.33° C | 50% | 1016.3 hPa | 0 mm | - | 785 W/m² | - |
| 1778173076 | 33.33° C | 50% | 1016.2 hPa | 0 mm | - | 784 W/m² | - |
| 1778172772 | 33.89° C | 49% | 1016.3 hPa | 0 mm | - | 784 W/m² | - |
| 1778172468 | 33.33° C | 50% | 1016 hPa | 0 mm | - | 774 W/m² | - |
| 1778172166 | 32.78° C | 49% | 1016.4 hPa | 0 mm | - | 770 W/m² | - |
| 1778171863 | 32.78° C | 51% | 1016.1 hPa | 0 mm | - | 764 W/m² | - |
| 1778171561 | 32.78° C | 49% | 1016.3 hPa | 0 mm | - | 759 W/m² | - |
| 1778171256 | 32.78° C | 51% | 1016 hPa | 0 mm | - | 752 W/m² | - |
| 1778170952 | 33.33° C | 51% | 1016.3 hPa | 0 mm | - | 741 W/m² | - |
| 1778170649 | 32.78° C | 51% | 1016.3 hPa | 0 mm | - | 734 W/m² | - |
| 1778170346 | 31.67° C | 52% | 1016.3 hPa | 0 mm | - | 727 W/m² | - |
| 1778170041 | 32.22° C | 51% | 1016.3 hPa | 0 mm | - | 721 W/m² | - |
* Rain latest hour (hover to see other rain measurements)
** Current wind speed in m/s (hover to see current wind gust speed)